This is the latest recevied weather packets stored in our database for station/object KD7AWQ. If no packets are shown the sender has not sent any weather packets the latest 10 day(s).
| Time | Temp. | Humidity | Pressure | Rain* | Wind** | Luminosity | Snow |
|---|---|---|---|---|---|---|---|
| 1788445962 | 23.33° C | 63% | 1188.8 hPa | 0 mm | - | 105 W/m² | - |
| 1788445658 | 23.33° C | 62% | 1188.4 hPa | 0 mm | - | 98 W/m² | - |
| 1788445354 | 23.33° C | 62% | 1188.7 hPa | 0 mm | - | 85 W/m² | - |
| 1788445050 | 23.89° C | 61% | 1188.7 hPa | 0 mm | - | 72 W/m² | - |
| 1788444745 | 23.89° C | 61% | 1188.7 hPa | 0 mm | - | 69 W/m² | - |
| 1788444440 | 23.89° C | 60% | 1188.6 hPa | 0 mm | - | 63 W/m² | - |
| 1788444135 | 23.89° C | 60% | 1188.4 hPa | 0 mm | - | 59 W/m² | - |
| 1788443831 | 23.89° C | 61% | 1188.2 hPa | 0 mm | - | 49 W/m² | - |
| 1788443526 | 23.89° C | 61% | 1188.2 hPa | 0 mm | - | 43 W/m² | - |
| 1788443224 | 23.89° C | 61% | 1188.3 hPa | 0 mm | - | 42 W/m² | - |
| 1788442921 | 23.89° C | 62% | 1188.6 hPa | 0 mm | - | 45 W/m² | - |
| 1788442618 | 23.33° C | 62% | 1188.4 hPa | 0 mm | - | 46 W/m² | - |
| 1788442315 | 23.33° C | 63% | 1188 hPa | 0 mm | - | 46 W/m² | - |
| 1788442015 | 23.33° C | 63% | 1188.1 hPa | 0 mm | - | 34 W/m² | - |
| 1788441715 | 23.33° C | 63% | 1188.1 hPa | 0 mm | - | 22 W/m² | - |
| 1788441409 | 23.33° C | 62% | 1188 hPa | 0 mm | - | 14 W/m² | - |
| 1788441108 | 23.33° C | 62% | 1188 hPa | 0 mm | - | 8 W/m² | - |
| 1788440804 | 23.33° C | 62% | 1187.8 hPa | 0 mm | - | 4 W/m² | - |
| 1788440498 | 23.33° C | 63% | 1187.8 hPa | 0 mm | - | 3 W/m² | - |
| 1788440197 | 23.33° C | 64% | 1188 hPa | 0 mm | - | 2 W/m² | - |
| 1788439892 | 23.89° C | 63% | 1187.8 hPa | 0 mm | - | 1 W/m² | - |
| 1788439591 | 23.89° C | 61% | 1187.8 hPa | 0 mm | - | 0 W/m² | - |
| 1788439286 | 23.89° C | 60% | 1187.7 hPa | 0 mm | - | 0 W/m² | - |
| 1788438986 | 23.89° C | 60% | 1187.9 hPa | 0 mm | - | 0 W/m² | - |
| 1788438685 | 23.89° C | 60% | 1187.7 hPa | 0 mm | - | 0 W/m² | - |
* Rain latest hour (hover to see other rain measurements)
** Current wind speed in m/s (hover to see current wind gust speed)